Regional Weather Roundup
Issued by NWS

Home | Current Version | Previous Version | Text Only | Print | Product List | Glossary Off
Versions: 1 2 3 4 5 6 7 8 9 10 11 12 13 14 15 16 17 18 19 20 21 22 23 24 25 26 27 28 29 30 31 32 33 34 35 36 37 38 39 40 41 42 43 44 45 46 47 48 49 50

000
ASUS43 KOAX 222302
RWRNE

WEATHER ROUNDUP FOR NEBRASKA
NATIONAL WEATHER SERVICE OMAHA NE
600 PM CDT SUN APR 22 2018

NOTES: SATELLITE DATA IS BEING USED TO AUGMENT CLOUD COVER ABOVE
       12000 FEET.
       "FAIR" INDICATES FEW OR NO CLOUDS BELOW 12,000 FEET WITH NO
       SIGNIFICANT WEATHER AND/OR OBSTRUCTIONS TO VISIBILITY.


NEZ001>004-019>022-054>056-230000-
NEBRASKA PANHANDLE

CITY           SKY/WX    TMP DP  RH WIND       PRES   REMARKS
SCOTTSBLUFF    SUNNY     63  38  39 E6        30.09F
ALLIANCE       SUNNY     60  39  45 S5        30.09S
CHADRON        SUNNY     67  37  33 VRB5      30.05F
GORDON         FAIR      61  37  39 CALM      30.08F
KIMBALL        SUNNY     61  33  34 E6        30.11S
SIDNEY         MOSUNNY   58  31  35 SE8       30.12F
$$

NEZ057>060-069>072-079>082-230000-
SOUTHWEST NEBRASKA

CITY           SKY/WX    TMP DP  RH WIND       PRES   REMARKS
NORTH PLATTE   MOSUNNY   58  38  47 S3        30.16F
IMPERIAL       SUNNY     55  37  50 VRB3      30.16F
LEXINGTON      CLOUDY    60  38  44 S5        30.16F
MCCOOK         FAIR      58  39  49 E5        30.15F
OGALLALA       SUNNY     56  37  47 CALM      30.16S
$$

NEZ005>010-023>029-035>040-094-230000-
NORTH CENTRAL NEBRASKA

CITY           SKY/WX    TMP DP  RH WIND       PRES   REMARKS
VALENTINE      MOSUNNY   62  36  37 S12       30.13F
AINSWORTH      MOSUNNY   60  39  46 S10G18    30.15F
BROKEN BOW     PTSUNNY   59  37  44 S8        30.15F
O`NEILL        SUNNY     65  30  26 SE5       30.16F
ORD            SUNNY     63  32  31 SE6       30.14F
THEDFORD       PTSUNNY   59  39  48 S12G18    30.16S
$$

NEZ041-046>049-061>064-073>077-083>087-230000-
SOUTH CENTRAL NEBRASKA

CITY           SKY/WX    TMP DP  RH WIND       PRES   REMARKS
GRAND ISLAND   SUNNY     65  36  34 E12       30.14F
AURORA         CLOUDY    65  32  29 SE13      30.14S
HASTINGS       SUNNY     64  36  35 SE10      30.14F
HEBRON         CLOUDY    63  36  37 E7        30.14F
HOLDREGE       MOSUNNY   60  38  44 CALM      30.15S
KEARNEY        SUNNY     62  38  40 E10       30.15F
YORK             N/A     64  34  32 CALM      30.15S
$$

NEZ011>018-030>034-042>045-230000-
NORTHEAST NEBRASKA

CITY           SKY/WX    TMP DP  RH WIND       PRES   REMARKS
NORFOLK        SUNNY     65  30  27 E8        30.14F
ALBION         SUNNY     67  33  29 SE9       30.15S
BLAIR          CLOUDY    68  33  27 NE10      30.14S
COLUMBUS       SUNNY     67  34  29 E6        30.15S
FREMONT        PTSUNNY   70  32  24 E12       30.14F
TEKAMAH        SUNNY     68  30  24 E12       30.14F
WAYNE          SUNNY     67  28  23 E10       30.15F
$$

NEZ050>053-065>068-078-088>093-230000-
SOUTHEAST NEBRASKA

CITY           SKY/WX    TMP DP  RH WIND       PRES   REMARKS
LINCOLN        PTSUNNY   66  34  30 E10       30.14F
OMAHA EPPLEY   PTSUNNY   68  32  26 E8G18     30.13F
BEATRICE       CLOUDY    67  38  34 E8        30.12S
FALLS CITY     MOSUNNY   69  38  32 E13G22    30.08S
NEBRASKA CITY  CLOUDY    68  36  30 NE10      30.11S
$$

NEZ044-045-051>053-067-230000-
OMAHA AREA

CITY           SKY/WX    TMP DP  RH WIND       PRES   REMARKS
OMAHA EPPLEY   PTSUNNY   68  32  26 E8G18     30.13F
BLAIR          CLOUDY    68  33  27 NE10      30.14S
FREMONT        PTSUNNY   70  32  24 E12       30.14F
MILLARD        CLOUDY    68  34  28 E7        30.13F
OFFUTT AFB     MOSUNNY   69  33  27 NE8       30.12F
WAHOO          FAIR      67  27  21 E10       30.13F
$$




USA.gov is the U.S. government's official web portal to all federal, state and local government web resources and services.